Date,TemperatureHighF,TemperatureAvgF,TemperatureLowF,DewpointHighF,DewpointAvgF,DewpointLowF,HumidityHigh,HumidityAvg,HumidityLow,PressureMaxIn,PressureMinIn,WindSpeedMaxMPH,WindSpeedAvgMPH,GustSpeedMaxMPH,PrecipitationSumIn
2013-5-1,47,38,31,-100,-100,-100,0,0,100,0.00,40.00,0,-999,0,0.14
2013-5-2,52,41,25,-100,-100,-100,0,0,100,0.00,40.00,0,-999,0,0.00
2013-5-3,59,43,27,-100,-100,-100,0,0,100,0.00,40.00,0,-999,0,0.00
2013-5-4,55,44,28,-100,-100,-100,0,0,100,0.00,40.00,0,-999,0,0.00
2013-5-5,61,46,28,-100,-100,-100,0,0,100,0.00,40.00,0,-999,0,0.00
2013-5-6,70,52,32,-100,-100,-100,0,0,100,0.00,40.00,0,-999,0,0.00
2013-5-7,73,54,36,-100,-100,-100,0,0,100,0.00,40.00,0,-999,0,0.00
2013-5-8,71,58,39,-100,-100,-100,0,0,100,0.00,40.00,0,-999,0,0.00
2013-5-9,64,55,49,-100,-100,-100,0,0,100,0.00,40.00,0,-999,0,0.00
2013-5-10,73,56,38,-100,-100,-100,0,0,100,0.00,40.00,0,-999,0,0.00
2013-5-11,64,52,38,-100,-100,-100,0,0,100,0.00,40.00,0,-999,0,0.00
2013-5-12,76,59,36,-100,-100,-100,0,0,100,0.00,40.00,0,-999,0,0.00
2013-5-13,89,74,57,-100,-100,-100,0,0,100,0.00,40.00,0,-999,0,0.00
2013-5-14,79,70,55,-100,-100,-100,0,0,100,0.00,40.00,0,-999,0,0.00
2013-5-15,77,64,51,-100,-100,-100,0,0,100,0.00,40.00,0,-999,0,0.00
2013-5-16,79,64,58,-100,-100,-100,0,0,100,0.00,40.00,0,-999,0,0.15
2013-5-17,76,63,52,-100,-100,-100,0,0,100,0.00,40.00,0,-999,0,0.15
2013-5-18,74,64,55,-100,-100,-100,0,0,100,0.00,40.00,0,-999,0,0.02
2013-5-19,63,56,53,-100,-100,-100,0,0,100,0.00,40.00,0,-999,0,0.75
2013-5-20,58,54,50,-100,-100,-100,0,0,100,0.00,40.00,0,-999,0,0.06
2013-5-21,54,50,45,-100,-100,-100,0,0,100,0.00,40.00,0,-999,0,0.03
2013-5-22,56,50,46,-100,-100,-100,0,0,100,0.00,40.00,0,-999,0,0.01
2013-5-23,68,57,45,-100,-100,-100,0,0,100,0.00,40.00,0,-999,0,0.01
2013-5-24,84,67,57,-100,-100,-100,0,0,100,0.00,40.00,0,-999,0,0.00
2013-5-25,81,68,51,-100,-100,-100,0,0,100,0.00,40.00,0,-999,0,0.00
2013-5-26,68,61,54,-100,-100,-100,0,0,100,0.00,40.00,0,-999,0,0.00
2013-5-27,72,61,53,-100,-100,-100,0,0,100,0.00,40.00,0,-999,0,0.20
2013-5-28,73,59,47,-100,-100,-100,0,0,100,0.00,40.00,0,-999,0,0.18
2013-5-29,70,60,54,-100,-100,-100,0,0,100,0.00,40.00,0,-999,0,0.03
2013-5-30,58,56,55,-100,-100,-100,0,0,100,0.00,40.00,0,-999,0,0.03
2013-5-31,55,52,48,-100,-100,-100,0,0,100,0.00,40.00,0,-999,0,0.07